Location: Atherton
(17.2661°S, 145.4859°E)
Time: 00:38:41
(UTC+10:00)

Vanguard 1 - Pass Details

Date: 28 June 2025
Orbit: 649 x 3822 km, 34.2° (Epoch: 17 July)

Event Time Altitude Azimuth Distance (km) Brightness Sun altitude
Rises 19:32:43 0° 276° (W) 7,632 16.0 -22.7°
Reaches altitude 10° 19:38:55 10° 270° (W) 6,259 15.1 -24.1°
Maximum altitude 19:55:37 43° 204° (SSW) 2,890 12.3 -27.9°
Enters shadow 20:00:32 31° 157° (SSE) 2,892 12.0 -29.0°
Drops below altitude 10° 20:05:10 10° 133° (SE) 3,668 - -30.1°
Sets 20:07:47 0° 125° (SE) 4,326 - -30.7°
